Estación de Codegua

Ultimos registro cada 15 minutos 59
Estación Fecha / Hora Temperatura Humedad Lluvia Velocidad Dirección Radiación Presion
59 Codegua 08-05-2026 14:30 19,3 38,4 0 0 215 499,4 958,8
58 Codegua 08-05-2026 14:15 19,6 38,5 0 0 219 523,1 959,1
57 Codegua 08-05-2026 14:00 19,4 37 0 0 225 548,1 959,3
56 Codegua 08-05-2026 13:45 19 38,4 0 0 161 568,1 959,5
55 Codegua 08-05-2026 13:30 18,5 38,1 0 0 229 578,1 959,7
54 Codegua 08-05-2026 13:15 18,2 46,6 0 0 239 43,1 959,9
53 Codegua 08-05-2026 13:00 17,2 48 0 0 234 591,9 960,2
52 Codegua 08-05-2026 12:45 17 52,2 0 0 218 593,1 960,2
51 Codegua 08-05-2026 12:30 16,9 54,3 0 0 236 591,9 960,3
50 Codegua 08-05-2026 12:15 15,9 58,6 0 0 234 593,1 960,7
49 Codegua 08-05-2026 12:00 15,7 57,6 0 0 233 583,1 960,7
48 Codegua 08-05-2026 11:45 15,5 61,8 0 0 236 558,1 960,6
47 Codegua 08-05-2026 11:30 14,5 67,4 0 0 219 559,4 960,5
46 Codegua 08-05-2026 11:15 13,7 71,1 0 0 226 538,1 960,7
45 Codegua 08-05-2026 11:00 12,7 74,4 0 0 206 515,6 960,8
44 Codegua 08-05-2026 10:45 12,1 77,2 0 0 313 489,4 961,1
43 Codegua 08-05-2026 10:30 10,7 82,4 0 0 7 460,6 961,2
42 Codegua 08-05-2026 10:15 9,6 86,6 0 0 115 41,9 961,2
41 Codegua 08-05-2026 10:00 8,3 92,6 0 0 119 400,6 961,7
40 Codegua 08-05-2026 09:45 7,3 98,1 0 0 352 361,9 961,7
39 Codegua 08-05-2026 09:30 6,3 99,8 0 0 338 319,4 961,7
38 Codegua 08-05-2026 09:15 5,4 99,6 0 0 321 108,1 961,9
37 Codegua 08-05-2026 09:00 5,2 99,9 0 0 258 140,6 962
36 Codegua 08-05-2026 08:45 4,6 100 0 0 192 40,6 961,9
35 Codegua 08-05-2026 08:30 4,3 100 0 0 173 26,9 961,7
34 Codegua 08-05-2026 08:15 3,2 100 0 0 174 23,1 961,8
33 Codegua 08-05-2026 08:00 2,3 100 0 0 175 18,1 961,9
32 Codegua 08-05-2026 07:45 2,1 100 0 0 175 5,6 961,8
31 Codegua 08-05-2026 07:30 1,7 99,9 0 0 175 3,1 962,1
30 Codegua 08-05-2026 07:15 2,2 99,9 0 0 175 0,6 962,3
29 Codegua 08-05-2026 07:00 2,9 99,9 0 0 175 0,6 962,4
28 Codegua 08-05-2026 06:45 3,1 99,9 0 0 175 0,6 962,5
27 Codegua 08-05-2026 06:30 2,3 99,7 0 0 175 0,6 962,8
26 Codegua 08-05-2026 06:15 2,2 99,7 0 0 175 0,6 963
25 Codegua 08-05-2026 06:00 2 99,4 0 0 175 0,6 962,7
24 Codegua 08-05-2026 05:45 2,1 99 0 0 175 0,6 962,4
23 Codegua 08-05-2026 05:30 2,1 99,1 0 0 175 0,6 962,5
22 Codegua 08-05-2026 05:15 2,8 99,1 0 0 175 0,6 962,4
21 Codegua 08-05-2026 05:00 2,9 98,9 0 0 175 0,6 962,1
20 Codegua 08-05-2026 04:45 2,6 98,5 0 0 175 0,6 962,2
19 Codegua 08-05-2026 04:30 3,7 98,7 0 0 175 0,6 961,9
18 Codegua 08-05-2026 04:15 3,8 98,7 0 0 175 0,6 961,7
17 Codegua 08-05-2026 04:00 4 98,6 0 0 177 0,6 962
16 Codegua 08-05-2026 03:45 3,6 98,1 0 0 177 0,6 962,3
15 Codegua 08-05-2026 03:30 3,8 97,9 0 0 177 0,6 962,4
14 Codegua 08-05-2026 03:15 4,2 97,9 0 0 177 0,6 962,6
13 Codegua 08-05-2026 03:00 4,1 97,6 0 0 177 0,6 962,9
12 Codegua 08-05-2026 02:45 4,5 97,4 0 0 177 0,6 963,1
11 Codegua 08-05-2026 02:30 5,4 97,3 0 0 177 0,6 962,9
10 Codegua 08-05-2026 02:15 6 97,5 0 0 177 0,6 963
9 Codegua 08-05-2026 02:00 6,1 96,8 0 0 177 0,6 963,3
8 Codegua 08-05-2026 01:45 6,7 96,3 0 0 177 0,6 963,4
7 Codegua 08-05-2026 01:30 7 96,5 0 0 177 0,6 963,6
6 Codegua 08-05-2026 01:15 7 95,9 0 0 177 0,6 963,5
5 Codegua 08-05-2026 01:00 6,9 95 0 0 178 0,6 963,6
4 Codegua 08-05-2026 00:45 7,3 94,9 0 0 191 0,6 963,8
3 Codegua 08-05-2026 00:30 7,7 93,9 0 0 191 0,6 964,2
2 Codegua 08-05-2026 00:15 8,2 93,7 0 0 191 0,6 963,6
1 Codegua 08-05-2026 00:00 8,5 93,3 0 0 191 0,6 964,1